GFSGBSN_sfc_thetae_099.txt.gz
Theta_e
315 315 316 316 316 317 317 318 318 319 322 321 321 320 320 320 319 317 314 313 311 309 308 308 308 309 304 292 291 308 321 318 315 309 301 299 296 293 290 291 294 293 295 297 298 298 298
313 313 314 315 316 316 317 317 317 317 318 321 320 319 319 319 318 316 314 312 309 308 308 308 307 308 299 284 298 304 305 315 307 304 300 299 297 297 293 294 293 295 295 296 296 296 296
312 313 314 315 315 316 316 316 316 315 316 317 320 319 318 318 317 315 313 310 308 307 307 307 307 305 297 291 300 302 305 309 305 301 298 300 302 300 299 295 298 296 293 295 296 297 296
312 313 314 314 314 314 315 316 316 317 316 316 318 319 317 317 316 313 310 308 306 305 304 305 307 304 291 303 305 302 302 300 303 304 305 305 304 300 296 297 294 292 292 288 294 295 296
311 312 315 314 313 313 314 315 316 317 317 316 316 319 317 315 313 311 308 306 304 304 305 307 303 300 291 306 301 305 303 297 299 301 302 303 300 296 294 290 288 289 285 287 290 295 294
310 311 314 313 313 313 314 315 316 317 316 315 316 318 316 314 311 308 306 304 303 303 305 306 305 294 297 296 301 305 305 301 296 298 297 296 294 290 290 288 282 284 285 287 287 291 291
310 310 312 311 313 314 315 316 315 317 316 315 316 318 315 312 309 306 302 300 296 294 299 295 295 295 295 302 305 302 303 298 298 295 290 292 288 285 288 290 290 289 287 286 289 291 288
310 311 311 310 313 315 316 316 317 317 316 316 317 316 313 311 308 305 300 295 297 299 291 297 297 298 301 301 294 298 303 296 294 287 291 288 286 290 291 289 288 288 286 285 288 290 289
311 310 310 311 313 315 317 319 318 317 316 316 316 314 312 309 306 301 296 296 302 300 288 291 295 295 297 299 294 295 299 296 292 290 289 286 290 292 289 287 286 286 285 286 287 290 292
309 308 309 310 312 312 316 318 317 317 316 316 315 311 309 307 299 298 295 300 301 298 282 287 288 293 297 298 292 301 301 297 292 290 290 290 293 290 289 288 289 285 290 290 288 287 284
308 308 308 308 310 310 311 312 317 316 315 314 311 308 306 302 295 293 297 299 299 295 275 288 288 299 298 294 294 295 303 294 291 289 291 289 289 289 288 289 291 288 292 289 289 286 286
308 307 307 307 307 307 307 307 307 308 308 307 304 302 301 298 297 299 300 300 299 279 274 284 291 291 290 292 293 295 296 297 296 290 290 290 293 292 291 292 292 293 290 290 288 287 281
308 306 306 306 306 306 305 305 304 304 304 303 302 301 298 299 292 299 300 295 279 275 286 284 287 291 290 288 289 292 290 289 286 282 283 287 288 292 293 289 291 291 287 280 279 279 278
307 307 306 306 305 305 305 305 305 304 303 303 301 300 299 297 299 300 297 287 274 280 280 286 287 290 286 288 289 290 288 284 286 288 284 282 280 288 291 290 288 287 287 281 275 277 280
307 306 306 305 305 304 304 304 304 303 303 301 299 293 294 296 299 299 290 278 279 282 285 284 290 285 283 286 286 285 284 282 284 285 284 283 282 290 289 289 290 287 285 289 283 283 280
306 306 305 305 304 304 303 303 302 302 302 300 293 291 291 299 298 296 285 280 282 286 286 287 282 284 281 282 284 284 283 285 284 288 289 284 279 286 287 291 288 289 290 284 285 276 275
306 305 305 304 304 303 302 302 302 301 301 299 291 287 294 299 299 289 280 282 285 289 288 286 284 282 282 282 284 282 282 285 287 286 288 286 283 281 285 283 280 282 283 286 286 284 279
305 305 304 304 304 303 302 301 301 301 300 294 289 282 295 298 285 286 281 285 289 287 290 288 288 286 283 284 282 282 281 284 288 288 283 285 283 278 279 285 287 287 285 285 279 278 281
305 304 304 303 303 303 301 300 300 300 299 290 287 288 295 295 280 281 285 285 287 287 287 287 286 287 286 282 280 282 283 287 289 287 284 285 280 274 276 282 284 281 283 283 282 281 276
305 304 303 303 302 302 301 300 299 300 300 293 284 280 285 289 288 284 283 284 283 288 287 288 287 288 285 282 284 281 281 285 288 290 291 288 281 277 274 277 281 278 280 281 280 277 276
304 303 303 303 302 302 300 300 300 299 300 293 286 281 285 278 282 284 284 285 283 282 287 288 285 285 284 279 280 279 282 283 285 287 286 285 278 280 280 281 281 280 279 279 277 278 275
302 302 303 303 301 300 300 300 299 299 299 290 283 284 286 284 286 283 283 284 283 283 285 283 282 283 283 280 281 279 281 281 281 284 283 283 278 279 277 280 280 277 279 279 279 279 279
302 302 302 301 300 300 299 299 299 299 298 290 290 290 287 283 283 282 282 284 284 284 285 286 285 283 281 282 285 285 285 285 284 282 281 280 278 275 272 278 277 273 278 279 281 284 283
301 301 301 300 300 299 299 298 298 299 299 293 291 289 285 281 282 283 285 285 284 284 282 284 285 284 285 288 288 286 284 283 283 282 283 279 278 277 273 275 267 279 285 285 281 284 283
301 301 301 300 299 298 298 298 299 300 301 293 292 289 285 281 283 283 284 284 285 285 284 284 286 287 288 286 282 279 279 280 281 283 282 283 280 275 272 272 276 279 281 279 279 279 281
300 301 300 299 298 298 298 298 299 300 300 293 291 291 288 284 282 285 283 284 282 281 283 284 288 288 286 282 279 274 273 277 276 279 282 282 282 278 275 270 269 276 281 284 284 276 281
300 300 300 299 298 298 298 298 300 299 300 292 290 292 289 283 285 286 282 282 284 283 281 282 284 284 285 278 274 274 275 279 275 274 277 277 277 275 275 274 276 280 282 284 275 275 281
300 300 299 299 298 298 298 298 300 300 298 293 291 292 289 284 286 288 288 284 284 284 281 282 281 282 280 277 276 274 276 278 277 274 279 278 276 276 276 273 271 282 281 276 279 282 281
299 299 299 299 298 298 298 299 300 299 298 294 289 292 291 287 286 289 290 290 289 288 284 283 281 281 281 278 279 278 278 278 276 275 281 276 278 277 277 276 282 282 281 282 282 280 280

GFSGBSN_sfc_thetae_102.txt.gz
Theta_e
315 315 315 315 316 316 316 316 317 317 317 318 319 321 323 322 321 319 316 314 313 311 308 308 308 309 304 298 301 311 320 317 313 312 306 304 301 301 297 298 299 297 298 300 301 301 301
313 313 314 314 315 315 315 316 316 316 317 317 316 317 320 321 321 319 316 314 312 310 308 307 307 308 301 295 311 304 310 313 311 309 305 304 301 302 298 297 296 299 299 300 302 302 302
312 314 313 314 314 315 315 315 314 315 316 317 316 315 316 320 320 318 315 313 310 308 307 306 307 305 300 302 310 307 306 306 310 307 303 304 304 300 300 297 301 300 296 298 300 300 299
311 312 312 313 314 315 314 314 313 314 315 316 317 316 315 318 318 317 314 311 309 307 304 304 306 305 299 309 311 307 307 304 309 310 306 306 306 303 302 302 298 296 297 293 299 300 301
311 311 312 313 313 314 313 313 313 314 314 315 316 316 315 316 316 314 311 309 307 306 305 305 302 301 297 309 303 308 308 303 303 307 306 307 305 300 301 296 294 295 291 294 295 301 300
310 312 312 312 312 313 312 313 314 314 314 314 316 316 315 316 315 311 309 307 305 304 305 306 304 298 303 304 305 305 310 306 300 300 301 300 298 296 296 294 288 291 292 294 293 297 297
310 310 311 311 313 312 313 314 315 314 314 315 317 316 315 316 312 308 305 302 297 295 300 301 301 302 305 305 307 305 307 303 299 297 293 295 289 290 294 295 294 293 293 293 295 297 294
310 310 311 311 310 312 312 315 315 316 316 316 316 315 315 315 310 308 307 299 303 304 299 303 303 304 306 305 299 302 307 297 292 291 293 292 288 295 297 295 292 292 291 291 294 296 293
311 311 309 309 310 311 312 315 316 317 317 317 316 315 315 310 308 305 303 301 304 304 293 300 303 302 304 305 300 303 304 301 294 290 289 288 292 294 293 291 289 290 290 290 289 294 296
309 309 309 309 310 311 312 314 316 317 316 315 315 314 311 308 302 300 296 300 302 302 287 294 295 298 302 302 297 306 305 301 295 292 290 288 291 289 291 290 292 287 293 291 291 291 288
309 309 308 309 309 309 309 310 313 317 316 315 314 311 307 308 299 297 299 302 301 298 279 294 293 302 301 298 299 300 308 299 294 293 292 290 290 289 287 291 293 290 294 292 293 291 291
308 308 308 307 307 307 307 308 308 309 311 311 308 306 303 300 300 299 302 302 299 287 279 290 293 292 293 296 296 299 301 300 299 292 292 292 296 293 291 293 294 295 292 293 293 291 284
307 308 308 307 306 306 305 305 305 304 304 304 303 302 300 301 294 301 301 296 283 281 290 289 290 293 292 291 292 294 294 290 287 285 286 290 290 294 295 291 294 292 288 282 280 281 281
307 308 308 307 306 306 306 305 305 304 304 304 302 301 300 300 301 302 299 289 280 285 287 289 289 291 289 292 291 292 293 289 293 291 287 283 281 290 294 292 289 289 288 282 276 279 283
306 307 307 307 306 306 305 305 304 304 303 301 301 298 297 299 302 302 293 283 283 285 288 287 289 288 289 290 290 291 291 290 291 292 286 285 284 292 292 293 294 290 287 293 286 287 284
305 306 307 306 306 305 304 304 304 303 301 299 297 297 293 299 301 297 289 284 286 289 288 288 284 285 286 287 288 289 289 289 287 290 292 288 282 289 290 293 292 293 295 286 288 279 278
305 305 306 306 305 304 304 303 303 302 301 299 296 292 295 299 300 290 284 286 287 290 290 288 286 285 285 284 288 286 287 288 288 287 291 288 286 285 288 287 286 288 289 290 290 287 281
304 303 305 306 305 304 304 303 303 303 301 297 296 287 298 300 287 288 286 287 290 288 291 290 291 288 285 286 286 285 284 287 291 290 286 289 286 281 283 288 289 287 287 287 283 282 285
303 302 303 305 305 304 303 303 302 301 301 297 290 289 296 296 284 285 288 287 289 288 289 289 287 289 288 286 282 287 285 289 290 288 286 287 283 279 280 285 287 284 286 286 285 285 281
301 301 301 304 305 304 303 302 301 302 300 298 292 284 289 291 290 287 285 285 285 290 289 291 290 289 286 284 287 285 284 287 291 290 290 289 284 281 278 280 284 281 283 284 283 281 281
299 300 301 303 304 303 302 300 300 301 300 297 292 288 290 284 286 288 288 287 285 285 290 290 288 287 286 282 283 283 284 286 288 288 289 288 280 281 282 282 282 282 282 282 281 281 278
298 300 301 303 303 303 302 301 300 300 300 295 289 288 290 288 289 287 287 285 285 286 288 286 286 287 288 284 284 282 284 285 284 286 286 286 280 281 279 282 282 280 282 282 282 282 282
297 301 301 302 303 302 301 301 300 300 299 294 298 297 292 288 286 285 286 286 287 288 288 289 289 286 285 285 288 289 289 288 288 285 283 282 282 278 275 279 279 276 281 282 283 284 285
301 302 301 302 301 300 300 300 300 300 299 299 298 296 291 285 286 286 287 289 288 288 286 288 289 286 287 292 291 290 288 287 286 286 286 282 281 280 277 278 271 282 287 286 283 286 286
298 301 302 301 302 300 300 298 299 299 300 298 300 295 292 286 287 287 288 287 288 289 287 287 288 290 293 289 285 282 282 283 284 286 284 286 283 279 277 277 279 280 282 281 280 280 283
299 301 301 301 299 300 299 298 299 300 301 299 298 299 294 289 286 289 287 289 286 286 286 287 290 293 292 288 284 277 276 279 279 282 287 285 286 283 279 274 272 281 284 287 284 277 282
300 301 300 300 300 299 299 299 300 301 302 299 297 299 295 290 289 290 287 287 289 288 286 287 287 288 291 286 282 280 279 283 279 279 279 280 280 278 278 277 279 280 285 286 276 277 282
300 300 300 300 299 299 299 299 301 301 300 298 295 298 295 291 290 291 291 289 289 289 285 287 286 286 287 282 283 281 282 283 281 281 281 280 279 279 280 277 273 285 285 280 280 283 282
300 299 299 299 299 299 299 299 300 300 300 298 294 297 298 294 290 294 293 293 292 292 290 289 286 285 288 285 285 285 283 284 282 278 284 279 281 281 280 279 283 284 282 283 284 283 282

GFSGBSN_sfc_thetae_105.txt.gz
Theta_e
315 315 315 315 315 315 315 316 316 316 316 317 317 318 318 320 322 322 319 316 315 314 312 308 308 309 308 306 308 321 322 318 315 314 308 308 305 305 302 305 305 303 304 305 306 304 304
313 314 314 315 314 314 314 316 316 315 315 315 316 317 317 317 318 321 319 316 314 313 310 308 307 308 304 302 320 321 312 314 311 311 309 309 307 308 304 302 301 304 303 303 305 304 304
312 312 313 314 314 314 315 315 315 315 314 314 315 316 316 317 317 318 319 315 313 312 309 307 306 306 304 307 320 319 311 312 316 313 310 312 310 306 305 302 305 303 298 302 303 304 303
311 311 312 313 313 313 313 314 315 315 314 314 315 314 315 316 316 316 317 314 312 310 308 305 305 305 302 317 320 317 318 311 312 313 311 312 310 305 302 304 302 300 301 295 303 304 304
311 311 311 313 313 313 312 314 313 313 314 314 314 314 315 315 315 315 315 312 310 308 306 305 306 306 303 314 310 313 315 310 311 310 311 311 307 303 302 296 294 299 293 297 300 306 303
310 310 311 311 312 313 314 313 312 313 314 314 315 315 315 315 314 315 312 310 308 306 305 306 306 300 307 306 312 310 313 311 308 307 304 304 301 299 299 295 288 294 294 298 297 303 301
310 311 310 310 312 312 311 312 313 312 313 314 315 315 315 315 314 311 306 304 299 297 300 304 304 304 307 312 311 308 312 309 306 302 296 301 295 293 298 300 299 298 296 297 300 304 300
309 310 310 311 311 310 311 312 312 313 313 314 316 316 315 315 313 308 313 303 309 308 301 305 307 307 310 312 304 308 311 302 301 296 300 295 291 298 300 298 296 296 294 294 298 301 299
310 310 310 309 309 310 311 312 312 312 313 314 316 316 315 314 309 309 307 309 307 309 297 302 307 306 307 308 303 304 308 304 299 296 296 294 296 298 296 294 291 292 291 292 291 296 299
310 310 310 309 308 310 311 311 312 312 313 315 315 315 313 310 305 307 302 304 307 310 290 296 300 303 306 307 301 309 310 306 299 296 296 295 299 296 293 291 292 286 294 293 293 292 287
309 309 310 309 308 310 309 310 311 312 315 316 314 313 310 309 302 301 301 305 303 303 280 296 300 307 304 301 302 302 309 304 297 295 294 293 293 293 291 292 293 290 294 292 293 289 291
309 309 309 309 308 308 308 308 307 310 315 315 313 310 308 305 306 308 306 304 303 287 279 293 297 295 296 300 300 301 301 306 302 294 294 294 299 296 294 294 293 294 292 291 293 291 283
307 308 308 308 307 307 306 305 305 306 308 310 308 307 304 305 298 308 306 301 284 281 294 292 292 295 295 295 296 297 296 294 292 286 287 292 292 295 296 292 293 291 287 280 279 281 282
307 307 307 307 308 306 306 305 304 305 305 304 303 302 301 301 305 303 300 290 281 290 291 294 293 295 292 296 295 295 293 291 295 293 290 287 285 292 295 291 290 290 288 282 276 277 281
305 306 307 307 307 307 307 306 305 305 304 303 302 300 299 300 303 302 293 285 287 290 294 291 291 290 291 293 294 294 292 292 293 295 288 287 287 295 295 295 294 290 287 292 286 288 284
304 305 306 306 306 307 306 306 305 304 303 302 298 295 295 302 304 299 289 288 292 294 292 291 286 290 288 291 291 291 291 295 294 297 298 290 285 292 294 295 295 292 295 285 287 279 278
304 304 305 305 306 307 306 306 305 304 302 302 300 293 295 301 301 291 287 290 293 295 293 290 289 289 289 290 291 290 291 291 295 293 294 292 289 287 291 289 287 290 290 290 289 286 281
303 303 304 304 301 306 306 305 304 303 301 297 297 289 297 300 287 288 288 291 292 292 294 292 293 291 289 291 289 290 290 291 293 294 290 294 290 285 287 291 292 291 289 289 284 282 285
301 302 303 304 303 303 305 305 304 304 302 300 293 290 297 297 284 285 290 291 291 290 291 291 290 292 292 290 286 289 290 292 294 293 291 292 287 282 283 287 290 288 289 290 289 288 283
300 301 302 302 302 304 305 305 304 303 302 299 293 286 287 289 291 290 287 287 288 293 292 293 291 292 290 289 291 288 288 291 292 292 290 291 288 285 280 283 288 284 286 288 286 283 283
300 300 301 301 301 301 304 304 304 303 302 297 294 291 293 284 287 290 290 289 287 287 292 293 290 290 289 285 287 287 289 289 291 290 290 290 283 285 284 285 285 285 285 285 283 284 280
300 300 300 301 302 300 304 304 303 303 301 294 291 291 293 291 291 288 289 288 288 289 290 288 288 290 291 287 287 286 288 288 286 289 288 288 283 284 282 284 284 281 284 284 284 284 284
299 300 299 300 301 300 303 303 302 302 300 293 298 299 294 290 290 287 288 289 289 291 291 292 291 290 289 289 291 293 293 291 290 289 287 286 285 281 278 281 281 278 282 284 285 286 286
300 299 299 300 301 300 303 302 301 301 300 300 299 297 292 287 288 287 289 291 290 291 288 291 293 290 291 294 294 292 291 290 289 288 290 284 283 282 280 280 273 284 289 287 286 287 289
299 299 299 302 302 302 302 302 301 301 301 299 299 297 293 288 288 289 290 290 291 292 291 290 291 294 295 292 286 283 283 283 284 286 286 287 285 282 279 278 282 283 285 283 281 283 284
297 298 303 302 301 302 301 301 301 301 300 299 299 301 296 290 288 292 290 291 289 288 289 290 294 297 294 289 286 279 277 281 280 283 288 286 288 284 281 277 274 282 286 289 287 280 284
297 301 301 300 300 300 300 300 300 300 300 300 298 303 297 291 293 293 290 290 292 290 288 290 290 290 293 287 283 282 281 285 280 279 280 282 283 281 281 279 280 284 287 289 277 278 283
297 301 301 300 300 300 299 299 300 300 301 300 297 303 298 294 292 294 294 292 292 292 288 291 288 288 287 284 284 283 283 285 284 283 283 282 281 280 282 279 276 287 287 280 281 284 283
300 300 300 300 299 300 299 300 301 301 301 300 296 300 300 296 292 297 296 297 295 295 293 292 290 289 292 287 288 288 285 286 284 280 287 282 284 284 282 281 283 286 283 284 285 284 283

GFSGBSN_sfc_thetae_108.txt.gz
Theta_e
315 315 315 315 316 315 315 315 316 316 317 316 316 316 317 317 319 318 320 319 317 316 315 312 310 309 308 306 309 323 324 318 313 309 309 308 305 305 301 304 305 303 305 306 307 307 306
313 314 314 314 314 313 313 315 315 316 316 315 315 315 316 317 318 317 317 318 316 316 314 311 309 308 305 300 318 322 319 317 312 311 310 311 308 309 305 304 303 304 304 304 304 304 305
313 313 313 314 314 314 314 315 315 316 316 315 315 314 315 315 316 317 317 318 315 314 312 310 308 307 303 304 317 320 319 315 314 314 310 313 313 308 307 303 307 305 300 302 303 304 303
312 312 312 313 313 314 314 314 314 315 315 315 314 314 314 314 315 316 316 316 315 313 311 308 306 305 300 315 318 316 317 315 318 314 312 313 313 308 305 306 303 299 300 295 302 304 305
311 311 311 312 313 313 313 313 313 314 314 313 314 314 314 314 314 315 315 315 313 311 308 307 304 304 301 316 312 315 316 311 315 314 311 311 310 304 303 298 296 298 292 295 298 306 304
310 311 311 312 312 313 313 314 313 313 313 313 313 314 314 314 314 314 314 312 310 307 305 307 307 300 305 303 311 313 313 313 310 310 307 305 303 299 298 295 289 292 293 296 297 302 304
309 310 311 311 312 312 312 312 312 311 312 313 314 314 315 315 314 312 307 305 301 298 300 303 303 302 306 311 313 309 311 309 308 305 298 302 296 292 295 297 298 297 295 294 298 302 300
311 309 309 310 311 311 310 311 311 312 312 312 313 313 314 315 314 310 310 305 307 309 301 304 306 306 309 310 303 306 312 303 301 296 299 296 292 297 298 297 296 296 294 293 297 300 299
311 310 309 309 310 311 311 311 311 312 312 311 312 313 315 315 311 308 307 308 311 312 300 301 306 305 306 308 303 303 308 304 299 296 296 293 296 299 297 295 293 293 292 292 292 296 297
311 310 310 309 310 311 310 311 311 311 311 311 312 313 314 312 305 307 305 307 312 313 292 294 299 304 307 307 301 309 309 305 300 296 297 295 299 297 295 294 294 289 296 294 292 290 285
310 310 310 310 310 310 310 311 310 310 310 311 312 315 312 311 307 304 303 306 311 306 280 295 298 308 306 302 302 303 309 304 297 297 297 294 295 294 292 293 296 291 295 293 292 289 288
308 309 309 310 309 309 309 309 308 308 309 312 314 313 310 306 309 306 305 307 306 288 279 292 299 298 298 300 301 302 302 305 304 298 299 296 301 297 296 297 297 296 291 291 291 288 280
307 308 308 309 309 309 308 307 306 306 307 312 313 312 310 308 300 305 305 302 286 282 294 290 293 296 295 295 297 298 297 295 293 288 289 294 294 298 298 293 295 292 287 280 279 280 279
307 307 307 307 308 308 307 305 304 304 304 304 304 304 303 304 306 305 304 292 282 288 289 297 296 296 292 295 295 296 294 291 296 294 290 286 285 293 297 293 291 289 287 281 275 278 281
305 306 306 306 307 307 307 306 305 304 304 303 302 301 299 302 306 305 295 284 286 291 295 294 294 291 291 294 294 294 294 292 295 296 288 287 288 297 297 297 295 289 285 291 284 284 281
304 304 305 306 306 306 306 307 306 305 305 303 298 296 296 303 305 299 289 287 292 297 298 296 289 290 288 291 291 292 292 296 294 298 298 292 285 293 296 296 295 293 295 284 284 277 277
302 303 304 305 306 306 306 306 306 306 305 303 298 291 297 302 302 290 284 289 294 299 298 292 290 289 290 290 292 291 291 294 296 297 297 294 290 288 292 290 288 290 288 289 288 286 280
301 302 302 303 304 305 304 305 307 306 304 299 296 287 298 301 286 287 286 293 296 296 297 293 293 293 291 292 290 290 290 292 298 298 292 295 290 285 287 293 294 293 289 289 284 282 285
300 301 301 302 303 304 302 301 306 305 304 298 292 289 297 297 283 284 290 292 294 292 293 292 291 293 294 291 287 290 292 294 295 293 290 293 288 281 283 288 291 288 290 290 289 288 282
299 299 300 301 302 303 304 302 304 305 304 298 291 284 287 289 289 288 287 289 290 294 293 293 292 294 291 289 292 289 290 292 294 294 292 293 288 285 281 283 288 285 287 289 287 282 282
300 300 300 301 301 302 302 304 304 304 304 297 290 288 291 281 283 288 291 290 289 288 292 294 291 291 290 286 288 288 291 291 292 290 291 291 284 287 287 286 286 286 285 286 284 285 282
299 299 300 301 300 301 302 301 301 304 303 293 289 290 293 292 290 287 290 289 288 289 290 288 289 291 291 288 289 286 290 289 287 289 289 291 283 286 283 286 285 282 284 285 285 285 284
299 299 300 299 301 302 302 301 300 304 300 291 296 299 295 291 289 288 288 289 290 292 293 293 292 291 290 291 293 294 294 294 291 288 287 287 285 282 278 284 282 278 282 283 285 286 286
298 298 299 300 300 301 302 300 302 303 301 299 301 299 291 287 289 289 290 290 290 291 289 293 294 291 293 297 295 294 293 291 291 290 291 286 285 283 279 280 272 284 289 288 285 287 287
299 299 300 301 301 301 299 301 303 303 302 299 300 295 292 288 290 290 290 290 292 293 290 291 292 295 296 292 286 282 282 283 285 287 287 288 285 280 277 277 282 284 285 283 281 282 285
298 299 299 300 301 301 300 299 302 302 303 298 298 299 294 287 289 293 290 291 289 288 289 291 294 297 295 291 285 278 276 280 279 282 287 286 287 284 281 276 274 282 287 290 287 278 283
299 298 299 299 299 300 301 302 302 302 301 298 297 302 296 288 293 294 289 289 293 291 288 289 290 290 294 288 283 281 280 285 279 279 280 281 283 280 280 279 279 285 288 289 277 277 282
298 297 299 302 302 301 302 301 301 301 301 298 297 301 296 289 293 294 295 292 294 292 287 290 288 289 288 284 283 284 283 284 283 284 282 281 279 279 282 279 276 287 287 282 282 284 282
297 300 301 300 300 300 300 300 300 299 299 300 294 301 302 293 292 298 297 297 296 296 294 293 290 290 291 286 287 286 284 287 285 279 288 282 284 283 280 279 283 285 283 285 287 284 282

GFSGBSN_sfc_thetae_111.txt.gz
Theta_e
315 315 315 315 316 316 315 315 316 316 316 317 316 316 315 315 316 317 317 316 319 319 317 315 312 310 305 301 304 318 324 321 313 307 304 303 303 301 297 299 301 299 301 303 304 303 302
314 314 314 314 314 314 314 314 315 315 315 316 316 316 316 315 316 317 317 316 317 318 316 314 311 308 301 295 312 315 316 313 308 305 303 305 304 305 301 300 299 302 302 302 303 302 302
313 313 313 314 314 314 314 314 315 315 314 316 316 315 315 315 315 314 314 316 316 316 315 313 311 306 301 301 311 312 312 312 310 309 305 308 308 303 303 300 304 302 296 298 299 299 298
313 312 312 313 313 313 314 314 314 314 314 315 315 314 314 314 314 313 313 315 315 316 314 312 308 304 297 312 312 311 310 309 313 313 309 308 307 303 300 302 299 296 295 290 296 299 301
312 312 311 312 312 313 313 313 313 314 314 314 314 314 314 314 314 314 314 315 315 314 312 308 302 301 297 313 308 311 312 309 311 311 309 310 304 299 299 293 290 292 287 289 293 300 300
311 311 311 312 313 313 313 313 313 313 313 312 313 314 313 314 314 313 313 312 311 308 306 307 306 299 302 301 310 312 312 312 308 308 306 303 297 292 292 289 283 285 287 289 290 294 298
311 310 310 311 312 311 311 312 313 311 312 313 313 313 313 313 314 312 308 305 301 299 300 298 299 301 304 308 310 308 309 307 306 302 295 299 291 287 291 294 294 292 291 289 293 297 296
312 312 310 310 310 310 311 311 311 311 312 312 312 312 312 313 314 310 309 301 303 303 296 300 303 303 305 306 301 305 308 300 299 293 296 292 288 294 296 295 293 291 289 289 293 296 295
312 312 310 310 310 310 310 311 311 310 311 311 311 312 312 313 312 309 305 305 309 310 294 299 302 302 304 306 300 300 304 301 297 293 293 289 293 297 295 292 291 291 289 289 288 292 294
311 311 311 310 310 310 310 311 311 311 311 311 310 310 311 312 306 306 305 311 309 310 286 292 297 301 305 305 299 306 307 301 297 293 294 292 297 295 293 292 292 287 293 292 290 288 283
309 309 310 310 311 310 310 310 310 310 310 309 309 310 311 311 305 303 305 307 308 304 275 294 296 308 305 300 301 301 308 302 295 294 294 291 293 292 291 292 293 290 293 291 290 286 287
308 309 309 309 309 309 309 309 309 309 307 307 309 311 312 309 308 307 306 306 305 287 276 290 297 297 297 299 299 301 301 302 300 295 295 294 297 296 293 296 294 295 291 290 288 287 279
307 308 308 308 308 309 309 309 308 307 306 306 310 313 311 309 301 305 305 303 286 279 293 288 292 296 295 294 296 297 295 292 289 285 286 291 292 295 298 291 293 290 285 278 275 278 276
305 306 307 308 308 308 308 308 307 305 304 304 305 309 304 305 306 305 304 292 280 287 288 295 293 294 290 293 293 295 293 289 292 291 286 284 281 292 296 292 288 287 285 278 273 274 280
304 305 306 306 307 307 307 308 306 305 304 303 303 300 299 302 306 306 297 284 284 288 292 291 291 288 289 292 292 291 291 290 292 294 286 285 285 295 296 296 293 289 283 289 282 282 277
303 303 305 305 306 306 307 307 307 305 305 304 298 296 296 303 305 301 292 286 289 295 295 295 288 290 286 288 289 290 290 294 293 297 296 291 283 293 295 296 294 291 292 282 283 275 275
302 302 303 304 304 305 306 306 306 306 306 304 298 291 297 303 302 292 285 286 292 297 297 294 291 289 289 289 289 289 291 294 295 295 296 293 288 287 292 290 287 288 287 288 287 285 278
301 301 302 303 303 304 305 306 306 306 306 300 295 286 298 301 287 286 285 289 295 294 298 296 294 292 290 291 289 289 289 293 296 296 292 294 289 283 286 293 295 292 288 288 281 280 283
301 301 301 301 302 303 304 304 302 305 305 295 290 288 297 297 282 283 287 290 294 293 294 292 290 292 292 289 286 289 290 296 295 293 293 293 285 280 282 287 290 287 289 291 289 287 281
300 300 300 301 301 302 302 303 303 304 305 298 289 282 287 287 287 286 285 286 288 295 293 294 292 292 290 288 291 287 289 292 295 294 295 294 288 283 278 282 286 283 286 289 287 278 280
299 299 300 299 300 301 301 302 303 303 304 297 290 286 285 280 283 286 289 288 286 288 293 293 290 290 288 284 286 285 290 291 292 292 291 290 282 286 287 288 286 285 285 286 285 284 279
299 299 299 299 299 300 300 302 303 304 304 292 285 287 291 285 286 285 286 289 286 288 290 287 288 290 290 286 287 283 289 288 286 288 289 290 282 285 282 286 285 282 284 283 284 284 284
298 299 299 299 299 300 300 301 302 303 301 287 292 294 290 286 286 284 283 285 288 290 292 292 290 289 289 290 292 291 292 293 291 286 285 284 282 281 277 284 283 276 282 284 285 285 286
298 298 298 299 299 299 300 302 302 302 301 295 294 292 289 283 285 285 287 287 289 290 289 292 292 290 293 296 293 293 292 291 290 289 290 284 282 281 278 278 271 282 287 287 284 283 285
296 297 298 298 299 300 301 301 301 301 301 296 298 294 290 283 287 288 288 288 290 291 291 291 294 296 296 291 284 281 280 282 285 288 288 288 283 278 275 276 280 282 285 281 278 279 282
298 299 299 299 300 300 301 301 301 301 302 298 297 297 292 286 283 290 288 290 286 286 287 289 295 295 292 284 280 277 275 278 278 281 287 286 286 279 278 273 270 278 286 288 286 273 281
299 298 299 299 300 301 300 300 299 302 303 298 295 298 294 286 289 291 288 287 292 288 285 287 287 287 289 280 277 277 279 284 277 278 278 279 279 278 277 274 278 285 288 290 272 273 281
298 299 298 299 300 299 300 301 299 302 302 298 295 298 295 287 288 294 294 290 292 290 284 286 283 284 283 280 281 280 281 282 281 280 280 278 277 276 277 274 272 284 285 279 278 282 281
298 298 298 299 298 299 300 300 300 301 302 299 293 299 300 289 290 296 295 296 295 296 289 287 286 286 286 283 283 284 282 281 282 277 287 275 278 277 278 276 282 284 282 285 285 281 281

GFSGBSN_sfc_thetae_114.txt.gz
Theta_e
318 317 316 316 316 316 314 315 316 315 315 316 316 316 315 315 315 316 316 316 316 317 319 318 315 310 304 300 303 314 324 321 312 305 302 301 301 300 295 297 299 297 298 300 302 302 301
315 315 315 315 314 314 313 314 315 315 315 315 315 316 316 315 315 315 315 315 315 316 318 317 314 308 302 295 310 312 312 312 309 304 302 302 302 303 299 298 296 299 299 298 299 298 299
314 314 315 314 314 313 313 314 314 314 314 314 315 316 315 315 315 315 314 312 315 315 317 316 313 306 301 300 311 310 311 308 309 306 302 305 305 301 301 298 302 300 295 297 297 296 296
313 313 314 314 313 313 313 314 314 314 314 314 315 315 314 314 314 314 313 312 314 316 317 314 311 304 297 310 310 308 308 307 310 311 309 309 307 301 298 300 298 294 293 287 293 296 298
313 313 313 313 312 312 313 313 313 314 314 314 314 313 313 313 313 313 314 314 315 316 315 311 304 301 297 312 306 310 309 306 309 310 308 310 303 297 297 291 288 289 283 287 290 297 295
311 312 311 312 312 312 313 312 313 313 313 313 313 313 313 313 313 313 313 313 312 309 307 307 306 297 301 300 308 310 309 309 306 306 304 300 296 291 290 287 280 283 285 285 285 291 293
311 311 311 311 312 311 311 311 313 312 311 312 313 313 313 312 313 312 308 304 301 299 300 296 297 299 302 306 310 307 309 307 305 301 294 297 290 286 289 291 292 290 288 287 290 293 292
313 313 311 311 311 310 310 311 311 311 311 312 312 312 312 312 313 311 307 298 301 301 294 300 302 301 304 304 299 303 307 300 298 292 295 291 288 294 295 293 292 291 288 287 291 293 292
312 312 313 312 310 310 309 310 311 311 311 311 311 311 311 311 312 309 303 304 309 306 293 298 301 299 301 303 298 299 302 299 295 292 292 289 291 296 294 292 290 289 287 287 287 290 291
311 311 312 312 311 311 311 311 311 311 310 311 310 310 309 310 306 307 304 310 311 307 282 290 296 300 303 304 298 305 304 299 295 292 292 290 295 293 292 290 291 286 292 291 289 286 281
310 310 311 311 311 311 310 310 310 310 310 309 308 307 309 312 302 304 306 309 308 304 270 291 296 307 305 298 299 301 306 299 293 292 292 289 290 290 289 291 292 289 292 290 289 284 283
309 309 309 309 309 309 309 309 309 309 309 307 307 307 309 308 307 305 308 307 305 286 272 289 296 296 296 298 298 300 300 301 299 294 294 292 296 294 292 294 293 294 290 288 287 284 275
308 308 308 308 308 309 309 309 309 309 307 306 306 307 309 310 302 306 308 303 286 277 290 287 291 295 294 293 295 295 294 292 289 285 285 290 291 294 296 290 292 289 284 279 273 276 275
306 307 306 308 308 308 308 308 308 308 306 305 305 305 306 308 305 307 305 292 279 285 286 293 293 294 291 294 293 294 291 287 290 289 286 283 281 290 295 292 288 286 285 278 272 273 276
305 305 306 306 307 308 308 308 308 307 305 304 304 300 300 303 307 308 297 283 283 286 291 290 290 287 286 292 291 292 290 289 291 292 286 284 284 293 295 295 292 287 281 287 282 281 274
304 304 304 305 306 307 306 307 307 307 305 304 296 297 297 303 305 303 292 285 287 293 293 293 287 290 285 287 287 288 288 293 292 294 294 290 284 291 294 295 294 289 290 282 281 274 273
303 303 304 304 305 305 305 306 306 307 306 305 296 288 297 304 304 294 284 286 290 295 295 292 289 288 289 288 288 288 289 293 294 293 295 291 288 286 293 289 287 287 286 287 285 281 276
302 302 303 303 303 303 304 305 305 306 306 301 295 286 297 302 288 286 286 290 294 293 296 294 294 292 289 289 287 287 289 292 294 294 291 293 289 283 285 293 294 292 288 288 279 277 280
301 301 301 302 302 303 304 304 305 305 305 297 290 289 297 297 283 283 287 289 292 292 292 293 291 293 292 287 285 288 290 295 295 293 291 292 286 281 282 287 289 286 289 289 288 286 280
300 301 301 301 302 302 302 303 304 304 305 298 287 281 287 288 288 286 284 286 287 293 292 294 293 293 289 287 290 286 288 293 294 293 296 295 288 284 279 282 285 283 286 289 287 279 278
299 300 300 301 301 301 301 302 302 303 303 296 287 284 286 280 282 286 287 287 284 286 292 292 291 289 287 283 286 286 290 289 290 294 291 288 280 284 286 288 287 286 283 286 286 284 279
299 299 299 299 300 300 300 301 302 302 303 294 285 286 288 283 285 284 286 287 284 287 289 288 287 288 288 284 286 283 288 288 285 286 287 288 280 283 282 287 285 281 283 283 283 284 284
298 298 299 299 299 300 300 301 301 302 301 289 291 294 290 287 283 283 283 285 286 289 290 292 290 289 289 288 291 289 291 291 290 286 283 284 282 281 279 284 284 278 280 284 284 284 285
298 298 298 298 299 299 299 300 301 301 301 293 293 293 287 282 285 284 285 285 285 287 287 291 292 289 291 294 293 291 291 290 288 288 288 282 282 281 278 281 273 281 288 288 282 282 285
296 297 298 298 298 299 300 300 301 302 302 294 295 293 288 280 286 286 286 286 287 287 288 291 293 294 293 289 284 281 281 282 285 288 287 287 283 279 275 276 279 282 284 282 280 278 282
295 295 296 297 298 299 299 300 300 301 302 296 296 297 292 285 283 289 288 287 284 282 287 290 295 297 290 283 281 277 274 278 277 281 289 288 286 280 277 274 270 277 286 288 284 272 280
295 297 297 297 299 299 299 300 300 301 301 298 295 297 293 286 288 289 287 284 290 289 283 287 290 286 289 280 274 276 277 283 276 277 278 279 279 277 277 274 277 284 287 288 272 274 280
298 298 299 299 299 299 299 300 301 301 302 298 294 298 293 287 289 290 292 290 291 287 282 287 285 286 281 278 279 277 277 280 278 279 280 278 277 277 278 273 271 283 285 279 276 280 279
297 298 298 298 299 299 300 301 301 301 300 299 292 298 299 287 289 294 294 296 296 295 288 287 286 285 285 280 280 282 280 283 280 277 286 275 277 276 277 274 280 283 280 282 282 279 280

GFSGBSN_sfc_thetae_117.txt.gz
Theta_e
319 319 319 319 318 317 315 315 316 315 315 315 315 315 315 315 314 315 315 315 315 316 317 319 315 311 305 300 300 311 322 320 310 304 301 299 299 297 294 295 297 295 297 299 299 299 298
319 318 317 316 316 315 314 314 315 314 314 314 314 315 315 314 314 314 315 313 313 315 316 318 314 309 301 294 307 309 309 308 309 304 300 300 300 300 297 296 294 298 297 296 297 297 298
317 316 316 316 315 315 314 314 314 314 314 314 313 315 315 314 314 314 313 312 312 313 315 317 312 307 300 298 307 307 308 305 306 304 301 304 303 300 299 295 299 298 293 295 296 295 295
315 314 314 315 315 314 314 314 314 314 314 313 313 314 313 313 313 314 313 312 313 314 314 316 312 304 296 309 308 307 305 305 308 308 308 308 306 301 297 299 296 293 291 286 292 294 296
314 314 314 315 314 313 313 313 313 313 313 314 313 313 312 312 312 313 313 314 314 316 316 311 303 302 295 310 304 308 308 304 307 308 308 311 304 297 296 290 287 287 282 285 289 295 293
313 313 313 314 312 312 312 313 312 313 313 312 312 312 312 312 312 312 313 313 312 310 309 308 306 296 299 296 304 308 308 307 305 305 303 301 294 290 290 287 280 282 283 280 284 290 292
312 312 312 312 312 311 310 312 312 312 312 311 311 312 312 312 311 312 308 302 300 297 300 296 296 297 300 304 307 305 308 305 304 301 294 294 288 286 290 290 290 288 286 285 287 292 290
313 313 313 313 312 311 311 311 311 311 311 310 311 311 311 311 311 311 307 297 298 300 294 299 300 299 303 303 297 301 307 300 298 292 295 291 287 293 293 291 290 289 287 286 289 292 290
313 313 313 313 313 312 310 310 311 311 311 310 311 311 311 310 311 309 302 302 306 307 292 296 299 298 300 302 296 296 302 299 294 292 292 289 292 296 293 291 289 289 287 287 286 289 290
312 311 312 312 312 312 311 311 311 311 311 310 310 310 309 309 306 306 303 307 306 305 281 288 295 299 301 301 295 302 302 298 293 291 291 290 295 292 290 289 290 285 290 289 288 285 279
311 311 311 311 312 311 310 311 310 310 310 310 309 307 307 309 300 302 303 308 307 300 270 290 296 306 303 297 297 299 302 297 291 291 291 288 290 289 288 290 291 287 292 289 288 283 281
310 311 311 310 311 311 310 310 310 310 310 310 308 307 307 306 307 305 306 307 303 279 270 287 297 295 295 297 297 299 298 299 297 292 291 289 293 292 290 292 293 293 289 287 286 282 274
309 309 309 309 309 309 310 309 309 309 309 309 308 307 305 308 298 307 307 302 284 273 287 285 290 295 294 292 293 294 292 290 288 284 284 288 290 293 295 290 291 288 288 281 275 275 275
308 308 309 308 308 308 308 308 308 308 309 308 306 305 306 306 306 306 303 292 277 284 284 291 292 294 290 292 292 293 290 287 290 288 284 283 281 290 295 292 288 286 285 279 273 273 275
307 307 308 308 307 308 307 308 308 308 308 306 305 298 301 304 307 307 296 283 280 284 289 288 288 285 286 291 291 290 288 289 291 290 284 283 284 291 294 293 292 286 281 286 281 281 275
306 306 306 306 306 306 307 307 308 308 307 306 296 294 296 304 306 302 291 285 286 290 291 291 283 286 282 284 287 288 287 291 291 293 293 289 282 290 292 294 292 289 290 280 281 274 273
304 305 305 305 305 305 306 306 307 307 307 305 295 290 296 304 304 295 284 285 289 293 293 289 287 286 287 286 286 285 286 291 293 292 293 290 287 285 291 288 286 287 284 285 283 279 274
303 302 303 304 304 304 304 305 305 306 306 302 295 286 294 304 289 287 286 289 293 291 294 292 292 290 288 288 286 286 287 290 294 294 289 292 288 284 286 290 293 291 288 286 276 276 281
302 302 302 302 303 303 304 304 304 305 305 298 290 289 296 297 283 283 288 289 292 290 290 291 289 291 292 287 285 287 288 293 294 293 290 291 286 279 282 285 290 287 289 289 287 284 280
302 302 301 302 302 303 303 303 303 304 305 298 288 282 286 289 289 285 284 286 287 293 291 293 291 292 289 287 289 286 287 292 293 293 297 295 287 283 278 280 285 284 287 289 287 280 280
301 301 301 301 302 301 302 302 303 303 304 298 289 284 286 280 283 286 287 286 284 286 291 293 289 289 287 284 285 286 288 289 289 296 292 290 282 284 286 286 286 285 286 287 285 285 280
299 299 300 300 301 301 301 302 303 302 303 295 284 285 288 283 285 285 285 284 284 285 288 288 287 289 289 286 286 284 288 287 286 288 286 286 280 281 281 286 287 283 285 283 286 287 286
299 299 299 300 300 300 300 301 301 302 300 291 289 293 289 285 282 283 283 284 284 287 288 290 289 288 287 288 291 292 292 291 291 286 284 284 282 281 279 284 285 280 282 283 283 283 284
298 298 299 299 299 299 300 300 301 301 299 292 293 289 285 280 283 282 284 285 284 286 285 289 290 287 290 295 294 292 289 288 289 287 289 282 282 282 278 280 274 280 287 287 283 282 284
297 298 298 298 299 299 300 300 300 301 300 292 292 291 287 282 284 285 285 285 286 286 286 286 289 293 295 292 285 282 281 283 285 287 287 286 282 279 274 276 279 281 283 281 281 279 282
296 296 297 297 298 298 299 300 300 301 300 296 291 296 290 284 283 288 286 286 283 284 284 286 294 297 294 285 283 278 275 279 279 281 288 286 285 280 278 273 271 276 285 288 284 272 281
295 295 296 296 297 298 298 299 300 300 300 295 293 296 293 285 286 289 285 284 289 286 284 286 290 289 290 283 277 275 276 282 276 277 279 280 280 277 276 274 276 283 287 287 271 274 280
294 296 295 295 295 296 297 299 299 300 300 297 294 298 292 285 289 291 291 288 288 288 281 286 286 285 283 280 281 278 276 278 277 275 279 278 277 276 277 273 270 284 285 278 277 279 278
297 298 298 298 298 297 298 299 299 299 300 299 292 298 298 289 288 293 293 294 293 293 285 285 284 284 286 282 281 282 279 278 278 274 283 273 277 275 278 275 281 283 280 280 280 279 276

GFSGBSN_sfc_thetae_120.txt.gz
Theta_e
321 321 321 320 320 318 317 316 317 316 315 315 314 315 315 314 314 314 314 314 313 314 316 316 317 313 305 298 298 310 317 317 309 303 301 299 297 295 292 294 295 293 295 298 298 297 297
319 319 319 319 318 317 316 316 316 314 314 314 314 314 314 315 314 313 314 313 312 313 315 316 313 312 301 293 304 308 308 307 307 303 300 298 299 299 296 295 293 295 296 295 296 297 296
318 318 318 317 316 316 316 315 314 314 314 313 313 313 314 314 313 313 313 311 311 312 313 316 312 306 299 297 306 306 307 304 304 304 299 302 301 298 297 294 297 296 291 293 294 293 294
318 317 316 316 315 315 314 314 314 313 314 313 313 313 313 312 313 313 313 312 311 312 313 316 312 305 295 307 306 306 304 304 306 306 305 306 304 299 295 297 295 291 290 285 291 293 294
316 316 315 316 315 314 314 313 314 313 312 313 313 313 312 312 312 312 312 313 312 315 315 312 303 301 293 308 300 305 306 303 305 306 305 309 302 296 294 289 286 287 280 284 288 293 292
315 314 314 315 315 314 313 313 312 312 313 313 312 311 311 311 311 311 312 312 313 311 308 308 306 294 297 294 302 306 306 306 303 303 302 299 293 290 288 286 279 281 282 280 283 288 290
315 315 314 314 314 313 312 311 312 311 312 312 310 311 311 311 311 311 307 301 296 295 301 294 295 294 297 302 305 304 306 303 303 299 292 293 288 285 289 289 288 287 284 283 285 291 289
314 314 314 314 313 312 311 312 312 311 311 311 310 311 310 310 311 311 303 296 295 302 293 298 299 298 302 302 296 298 306 299 297 291 293 289 286 291 292 290 289 288 285 285 288 291 289
313 313 313 313 313 313 312 312 311 311 310 310 310 310 310 309 310 309 304 298 305 306 291 294 298 297 298 300 294 295 302 298 294 291 291 287 290 295 292 289 288 287 285 285 286 288 288
312 312 312 312 312 312 312 312 311 311 310 310 309 310 308 308 303 301 300 305 304 304 279 285 294 298 300 299 293 300 301 298 292 291 290 290 294 292 290 289 289 283 290 289 286 284 278
310 311 311 311 311 311 311 311 311 311 311 310 309 309 307 308 296 298 300 304 303 297 269 289 294 304 301 294 296 297 300 296 291 290 290 287 288 288 287 289 290 286 290 288 287 282 280
309 310 310 311 311 310 310 310 310 310 310 310 310 308 307 303 305 302 305 305 302 275 269 286 295 294 293 296 295 297 295 298 295 291 290 289 291 290 290 291 291 292 288 286 284 281 277
307 309 309 310 309 309 310 310 309 309 310 309 309 308 305 304 296 305 306 303 282 271 284 284 290 294 292 291 292 293 290 289 286 283 283 287 288 291 293 288 290 287 285 277 274 275 275
307 307 309 309 309 309 309 309 309 309 309 309 308 307 304 303 304 305 303 292 277 280 281 289 292 292 289 291 290 291 288 284 289 287 283 281 279 288 293 290 286 284 285 281 273 272 274
305 307 306 307 308 308 308 308 307 308 308 307 306 298 300 304 304 305 296 282 278 282 288 285 286 285 286 290 289 289 288 286 288 289 284 281 282 290 293 292 291 285 284 287 282 281 277
303 305 306 306 306 308 307 307 307 307 307 306 296 294 298 303 306 302 290 283 285 289 290 290 281 283 280 284 287 287 286 290 290 292 291 287 281 289 291 292 291 288 289 281 282 275 273
302 302 303 306 306 306 306 306 306 307 307 304 295 290 295 303 305 294 283 284 287 292 292 288 286 285 286 285 286 284 286 289 292 290 292 288 286 284 290 287 285 285 284 285 284 281 274
301 301 302 305 306 305 305 305 305 305 306 301 294 285 295 304 289 288 285 287 292 290 292 290 291 289 286 287 286 285 285 288 293 292 287 290 286 282 285 290 292 291 287 286 280 276 279
301 301 300 305 305 304 304 304 305 306 305 298 289 289 295 297 283 284 287 288 290 289 289 289 288 291 291 286 284 286 288 292 293 292 289 292 285 280 278 284 288 287 288 288 287 285 280
300 300 301 303 303 303 303 304 304 304 305 298 288 282 287 291 291 286 285 285 286 292 290 292 290 291 288 286 288 285 286 291 292 292 297 294 286 283 278 280 284 283 286 288 287 281 281
299 299 302 301 301 303 303 304 304 304 304 298 289 284 286 280 284 286 287 286 285 285 291 292 289 289 286 283 284 284 286 288 289 293 291 289 283 284 285 286 287 285 285 286 286 286 281
298 299 299 301 302 303 303 303 303 303 304 295 284 285 288 283 286 286 285 284 283 285 287 287 286 288 288 285 285 282 286 286 285 290 288 287 280 283 281 285 286 283 285 285 286 287 286
298 297 301 301 301 301 302 302 302 303 301 290 291 293 285 282 282 283 283 284 284 287 288 289 288 288 286 288 290 291 291 290 291 287 284 284 282 281 278 282 281 280 283 284 283 283 285
296 298 298 300 300 300 301 301 301 302 300 293 292 290 285 279 281 282 283 285 284 285 284 288 289 286 289 294 293 290 288 288 289 288 289 284 282 282 279 280 274 280 284 286 283 284 285
296 296 298 298 299 299 300 301 301 301 300 290 293 290 286 279 283 284 284 283 284 286 286 286 288 291 293 291 286 283 282 282 285 287 287 286 282 280 276 276 279 280 282 279 279 279 282
296 297 297 298 298 299 299 299 299 300 300 291 289 295 290 280 279 286 284 285 281 280 281 284 289 293 291 287 283 278 275 281 280 282 288 286 285 282 277 271 269 275 283 286 283 274 281
295 295 296 297 297 298 298 299 299 299 299 294 293 293 290 284 285 287 285 285 286 283 278 284 287 288 291 283 278 278 278 282 278 278 279 281 280 278 276 274 276 281 285 286 272 275 283
295 295 295 296 296 297 298 299 299 299 299 296 292 294 289 286 287 289 291 288 289 286 281 286 286 286 284 281 280 279 276 280 279 277 280 279 277 276 278 274 269 284 284 278 278 279 279
295 294 295 295 295 297 297 298 298 299 299 297 287 294 295 289 288 293 292 292 292 291 286 287 283 283 283 282 282 282 281 278 278 274 282 277 276 273 277 274 278 282 281 281 281 278 276

GFSGBSN_sfc_thetae_123.txt.gz
Theta_e
326 325 324 323 322 321 319 318 317 316 316 315 315 315 315 315 314 313 314 314 313 312 314 316 317 314 308 299 298 313 316 316 311 308 305 304 302 301 298 299 300 298 299 301 302 301 301
319 320 320 320 320 319 318 318 317 316 315 315 314 313 313 315 314 313 313 314 312 312 314 315 314 312 305 292 306 310 309 309 308 308 304 304 304 304 301 299 299 300 299 299 300 301 300
319 318 318 318 318 317 317 316 316 315 315 314 314 313 314 314 313 313 313 313 311 312 312 314 313 307 301 297 309 309 308 307 308 307 305 305 306 303 302 298 301 299 296 298 298 298 297
318 318 317 317 316 316 315 315 315 315 314 313 313 313 313 313 312 312 313 313 311 312 312 316 311 305 296 308 309 307 308 306 308 309 307 309 309 304 301 301 298 295 294 290 295 297 297
317 317 317 316 315 314 314 314 314 314 314 314 313 313 312 311 311 312 312 313 313 313 315 312 306 302 295 309 302 306 308 304 306 307 307 310 307 302 300 294 292 292 287 288 291 296 296
317 317 316 316 315 314 313 313 314 313 313 313 313 311 311 311 311 311 311 312 314 311 309 308 306 296 298 295 303 307 308 307 304 304 303 303 299 297 293 293 284 286 287 288 288 294 295
317 316 316 315 315 314 314 314 313 312 312 312 312 310 311 311 310 311 307 304 298 296 301 295 295 294 298 304 306 305 308 306 305 302 296 298 295 291 294 294 291 290 288 288 291 295 292
315 316 315 315 315 315 314 314 313 312 311 312 310 311 310 310 310 310 306 299 297 303 293 299 299 299 301 303 297 301 307 301 300 293 296 293 291 296 295 294 292 292 289 290 292 294 293
313 314 313 314 315 314 314 313 312 311 311 311 310 310 310 309 309 309 304 301 307 307 294 295 298 297 298 301 295 296 304 301 297 293 293 291 292 296 294 292 290 290 289 289 289 292 293
311 312 312 312 313 313 313 312 312 311 310 310 310 310 309 308 304 304 300 306 307 307 284 286 293 297 300 299 293 301 304 302 296 294 294 293 296 294 293 291 292 288 293 292 290 288 285
308 310 311 312 312 311 311 311 311 311 311 310 309 310 308 309 300 300 302 306 306 297 274 290 294 304 301 294 297 298 302 300 294 293 294 290 291 291 291 292 294 290 293 291 290 288 287
306 308 309 311 311 310 310 310 310 310 310 310 309 309 307 305 305 305 307 308 302 282 272 287 295 294 293 296 297 297 298 301 298 294 293 291 295 294 293 293 294 294 292 290 289 287 281
303 305 307 309 310 310 310 310 310 310 310 310 309 308 305 304 297 306 308 304 284 275 286 286 290 294 292 291 293 293 292 292 290 286 287 290 291 294 295 292 293 293 290 282 280 278 279
302 302 303 307 308 309 310 310 309 309 309 309 309 308 306 303 304 307 304 293 276 281 282 289 293 293 290 292 291 292 290 288 292 289 286 284 282 290 294 293 290 290 289 282 276 277 280
301 302 303 303 306 308 309 308 309 308 308 308 307 301 300 302 303 305 295 282 280 283 288 286 289 288 288 291 291 291 289 288 291 292 286 284 284 292 294 294 294 289 287 292 285 283 280
301 302 302 303 305 305 307 307 307 308 308 307 299 297 297 303 304 299 289 284 285 289 291 290 282 285 283 287 289 290 289 292 291 293 294 290 284 291 292 295 293 292 293 285 286 277 275
300 301 301 301 302 304 305 307 307 307 307 305 296 291 296 304 304 292 283 285 287 292 293 289 287 287 287 286 289 287 288 292 294 292 294 292 289 287 292 290 289 288 287 287 287 284 279
299 299 301 300 302 302 305 305 307 307 306 302 294 284 297 304 287 287 284 287 291 290 292 291 291 290 288 289 287 287 287 290 295 294 290 293 290 285 287 292 295 293 290 289 283 280 282
298 299 300 300 300 301 302 305 304 304 305 297 289 288 297 298 281 283 286 286 289 289 289 289 289 291 292 289 285 289 289 294 295 294 292 294 287 283 284 288 291 290 291 291 289 287 282
298 298 299 300 301 301 303 305 305 304 304 297 288 283 287 291 291 287 284 284 285 291 289 290 290 292 289 288 290 287 288 293 294 294 298 296 289 286 281 283 288 285 289 291 289 283 284
297 298 298 300 300 303 305 304 304 304 304 297 289 285 288 281 285 287 287 287 284 284 291 291 288 289 288 284 286 286 289 290 292 294 295 293 285 287 288 288 288 288 287 288 287 288 283
297 297 298 299 299 301 302 303 303 303 304 295 285 286 288 285 288 286 286 284 284 286 288 287 287 288 289 286 287 285 288 289 288 291 291 290 285 286 284 287 288 285 288 288 288 288 288
297 297 298 299 296 300 299 302 302 302 303 289 289 292 288 285 285 284 284 285 285 288 289 290 290 288 287 289 292 293 293 292 292 290 287 287 285 283 280 285 285 281 285 287 287 289 288
297 297 298 299 299 298 301 301 301 302 301 292 292 289 285 280 284 283 285 286 285 287 285 289 291 288 291 295 294 292 291 290 290 290 292 287 285 284 281 283 275 285 287 288 287 289 289
295 296 297 298 300 301 302 301 301 302 299 294 295 290 286 281 284 284 284 285 286 287 287 287 290 292 295 292 286 282 283 283 284 288 289 290 287 282 279 278 281 284 285 284 284 285 288
295 295 295 296 296 300 300 301 301 301 300 293 295 295 288 283 283 286 285 286 282 283 284 286 292 294 293 288 283 277 276 280 280 282 288 289 288 283 280 276 274 283 286 288 287 280 287
295 295 295 296 297 297 299 300 300 300 300 295 293 295 290 284 286 287 284 284 287 285 283 285 287 288 291 283 279 278 278 284 278 279 280 282 282 280 278 277 280 286 287 287 279 283 286
294 295 295 295 296 298 298 299 299 300 300 295 291 295 291 285 286 290 291 288 289 287 283 286 287 287 285 281 280 280 279 282 281 282 282 281 280 279 280 277 275 287 286 282 286 282 286
294 295 295 294 295 296 297 298 299 299 299 296 289 295 294 289 287 293 294 294 293 293 289 289 287 286 287 284 283 284 281 282 281 278 285 280 284 281 282 282 282 285 284 284 284 283 283

GFSGBSN_sfc_thetae_126.txt.gz
Theta_e
328 329 328 327 325 324 323 321 319 318 317 317 316 316 316 316 315 314 314 313 313 312 313 315 317 315 311 302 301 316 316 319 316 315 312 311 308 306 301 302 303 301 303 305 306 306 306
319 320 324 324 323 322 322 320 318 316 316 316 315 314 313 314 315 314 313 314 312 312 313 314 316 313 308 296 311 315 313 313 313 313 311 311 308 308 304 303 303 304 303 304 305 304 304
318 318 318 318 319 319 319 317 317 316 315 315 314 313 313 314 314 313 313 313 312 312 313 313 314 311 304 300 312 314 312 311 312 312 308 310 311 306 307 302 305 303 299 301 301 302 301
317 318 317 317 317 317 316 316 316 315 315 314 313 313 313 313 312 312 312 313 313 313 313 315 312 310 299 310 314 310 313 311 312 312 312 313 313 308 306 305 302 299 299 295 300 300 301
318 317 318 317 316 316 315 314 314 314 315 314 314 313 313 312 311 312 312 313 313 314 314 313 310 306 298 309 305 309 311 305 308 309 312 313 311 305 304 299 297 298 293 293 295 300 299
315 317 317 317 316 315 315 314 313 314 313 314 313 313 312 311 311 311 311 313 313 312 311 311 309 300 302 298 306 310 312 311 307 306 306 307 305 301 301 298 291 292 292 294 293 298 298
313 314 317 317 316 316 315 314 313 313 313 313 313 312 311 311 311 310 312 310 303 302 304 299 300 297 300 307 309 309 311 309 307 304 297 303 298 295 298 299 298 295 293 292 296 299 296
312 312 313 316 317 316 315 315 314 313 313 312 312 311 311 311 311 311 311 303 301 306 296 302 301 301 304 305 301 306 312 303 301 296 300 298 294 299 299 299 297 295 293 293 296 298 297
309 310 312 313 316 315 315 315 314 312 312 312 311 311 311 310 310 310 306 304 313 311 297 296 301 299 300 303 297 302 308 304 300 296 297 294 296 299 298 296 294 295 293 293 292 296 298
306 306 309 311 313 314 313 313 313 312 311 311 310 310 310 309 305 307 304 309 314 312 290 291 295 299 301 301 295 303 309 304 300 295 297 296 299 296 296 295 296 291 296 294 293 292 289
303 304 305 308 311 312 312 312 312 312 311 311 309 309 309 309 305 302 305 310 312 307 279 292 295 306 303 296 299 299 307 304 296 297 297 294 296 295 294 294 297 292 296 294 294 293 292
302 303 303 304 307 310 311 310 311 311 310 310 309 309 308 307 309 308 312 312 308 287 278 290 297 296 295 297 299 300 298 304 302 297 297 295 299 298 296 297 298 298 295 295 294 292 285
302 302 303 302 303 305 309 310 310 310 309 310 309 309 307 307 299 311 313 306 286 280 289 289 292 296 296 293 296 296 293 293 292 288 289 294 294 297 299 295 297 297 293 287 284 285 283
301 302 302 302 303 303 304 309 309 309 309 309 308 308 307 306 309 310 306 294 279 285 286 293 295 296 292 294 295 294 293 290 295 293 291 288 286 294 298 295 293 294 293 286 278 281 285
300 301 302 302 302 302 303 306 308 309 309 308 308 307 304 307 308 309 296 284 283 286 288 288 295 291 291 294 293 294 293 292 294 295 288 288 287 296 297 298 297 293 290 295 288 289 285
299 300 300 301 302 302 303 303 305 308 309 308 301 299 300 307 307 301 289 284 287 291 292 291 287 290 287 291 291 293 292 296 293 297 299 293 286 295 296 298 298 295 298 287 289 280 279
299 299 300 300 301 302 302 302 304 308 308 307 298 291 301 308 304 291 283 286 289 294 294 291 287 287 288 289 292 291 291 295 297 296 298 295 292 291 295 293 292 292 292 292 292 289 282
298 298 299 299 300 301 302 303 302 305 306 303 295 286 303 306 287 288 285 289 292 291 295 292 293 291 290 291 289 290 290 292 298 298 293 297 293 287 290 297 299 297 293 293 286 285 288
298 298 298 299 300 300 301 301 302 303 305 298 289 291 301 302 283 284 288 288 291 290 290 291 290 292 293 290 287 291 292 296 298 296 295 297 292 286 287 292 296 293 294 295 294 291 286
297 298 298 299 299 300 301 302 302 302 306 299 291 285 289 293 294 288 285 286 286 292 291 292 291 293 291 289 291 288 290 295 297 297 298 298 292 288 284 286 292 288 291 293 292 286 287
297 297 298 298 299 299 300 301 302 303 303 295 289 286 290 282 286 289 289 287 285 285 291 292 290 290 289 285 287 287 290 292 294 296 295 294 286 288 289 291 291 290 290 291 289 290 286
297 297 297 297 298 299 300 301 302 302 301 291 285 287 291 290 290 288 288 287 285 286 288 287 287 289 289 286 287 285 289 290 290 294 293 295 286 288 285 289 289 287 290 290 290 291 290
297 297 297 297 298 299 300 301 300 303 301 287 289 296 293 289 289 287 287 288 288 290 291 291 291 290 288 291 294 294 295 295 294 292 291 290 288 285 281 287 287 283 288 289 291 292 292
296 297 297 298 298 299 299 300 299 304 300 294 294 294 289 284 288 287 288 289 288 289 287 290 292 290 293 298 297 295 295 294 294 293 294 289 288 287 282 284 276 288 293 293 291 293 294
296 297 297 297 298 299 299 300 299 301 300 296 297 294 290 285 289 288 289 288 289 291 289 290 292 295 298 294 287 284 285 285 287 290 291 292 289 282 280 280 284 287 290 289 288 288 294
296 296 295 295 297 299 299 300 299 300 301 297 297 299 294 288 286 290 288 290 288 288 288 290 295 298 295 290 285 279 278 281 281 285 291 290 290 285 282 278 275 287 292 294 292 284 294
295 294 293 296 295 299 299 299 299 300 300 299 296 301 296 289 291 291 288 288 292 290 287 289 291 291 295 286 282 280 280 285 280 280 282 283 283 279 281 279 283 291 291 293 282 286 292
294 294 294 295 295 297 298 299 299 300 300 299 297 301 295 291 291 293 293 291 292 292 287 290 290 290 288 283 282 282 282 284 283 286 284 283 282 281 282 279 277 291 290 284 291 290 293
294 294 295 295 294 296 297 299 300 301 299 299 294 300 301 294 292 296 296 297 296 296 293 293 289 290 292 287 287 287 284 286 285 280 289 282 288 285 285 286 290 293 291 291 291 291 292

GFSGBSN_sfc_thetae_129.txt.gz
Theta_e
320 320 322 327 327 327 327 327 323 321 319 319 318 318 317 317 316 315 314 314 314 313 313 314 316 318 313 305 306 317 316 318 320 318 315 312 309 308 305 305 306 304 304 306 308 308 307
319 319 318 319 322 326 327 324 321 319 318 317 316 316 315 314 315 315 314 313 313 312 313 314 316 316 310 300 312 315 314 315 317 316 313 312 309 310 306 305 304 308 307 307 308 306 306
317 318 317 317 318 318 323 320 318 316 316 316 315 314 313 312 314 314 313 313 314 313 313 314 315 314 306 303 313 315 313 312 313 314 311 313 313 308 307 305 308 306 302 304 305 305 303
317 317 318 317 317 317 316 316 315 315 314 314 314 314 312 313 313 312 312 313 313 314 313 314 315 312 302 311 315 312 314 312 314 313 312 313 313 309 307 309 304 301 303 298 304 304 304
315 317 317 317 317 316 316 315 315 315 315 314 314 314 313 313 311 311 312 313 314 314 314 315 312 310 301 310 306 310 312 308 311 312 314 314 312 307 307 301 299 301 296 298 299 304 302
314 314 315 317 316 316 316 314 313 314 313 313 313 313 313 312 311 311 312 313 313 313 313 313 310 302 305 301 307 310 313 310 307 307 307 308 306 303 302 300 293 296 297 298 297 301 301
312 312 313 313 316 316 316 315 314 314 314 313 313 313 312 311 311 311 311 311 304 305 306 301 303 301 302 307 311 310 312 308 308 304 300 304 299 297 300 302 301 299 297 296 299 302 299
309 310 311 312 312 316 316 316 314 314 313 313 313 313 311 312 311 311 310 305 304 308 298 305 304 304 306 308 303 308 313 305 303 298 301 300 296 301 303 301 300 299 296 296 299 301 299
306 307 308 310 311 312 314 316 315 314 313 313 312 311 311 311 311 310 306 305 311 311 297 298 302 301 302 304 300 304 309 306 301 298 299 298 299 302 300 299 297 297 295 296 296 299 300
304 304 305 306 308 310 311 315 314 314 313 312 311 310 310 310 304 306 304 309 311 313 290 293 295 301 302 303 298 304 310 306 302 298 299 299 302 298 298 297 298 294 299 297 295 294 290
303 303 303 304 304 305 307 311 313 313 312 312 311 310 309 308 306 301 304 309 312 308 279 297 297 307 304 298 299 299 308 306 298 298 298 296 297 297 296 297 299 296 298 296 296 294 294
302 302 302 303 303 303 304 305 310 311 312 311 310 309 309 306 309 308 311 310 308 289 278 293 299 296 298 298 297 302 299 305 304 299 300 299 302 301 300 300 300 300 296 296 296 294 287
301 302 302 302 303 303 303 304 305 309 311 310 309 309 307 306 301 312 314 306 286 280 294 292 294 297 296 295 295 298 294 295 293 289 291 296 297 300 301 297 299 298 294 288 286 287 286
300 301 301 302 302 302 303 303 304 305 310 310 309 308 307 306 309 313 309 294 278 286 290 295 296 297 294 296 296 296 294 291 296 294 292 289 287 296 300 297 295 295 294 288 281 283 287
300 300 300 300 302 303 303 303 303 303 305 309 308 306 305 307 310 311 298 282 283 288 293 291 294 293 293 296 296 295 294 293 295 296 291 290 291 299 299 299 298 295 291 296 290 290 286
299 299 300 300 300 301 303 303 303 303 302 304 303 300 301 309 311 303 290 285 288 293 293 292 287 293 289 293 292 294 293 297 296 298 300 295 289 296 297 300 299 296 298 289 291 281 280
299 299 299 300 300 300 301 302 302 303 302 303 301 290 299 309 307 294 284 287 290 295 294 291 288 289 290 292 293 293 293 296 298 297 299 297 292 292 296 294 292 293 292 293 293 290 283
298 299 299 299 299 300 300 301 302 302 302 299 294 284 302 304 288 290 287 291 293 292 295 294 294 292 289 291 292 293 292 295 300 300 294 297 293 287 291 297 298 296 294 293 288 285 290
298 298 298 299 299 299 300 300 302 302 302 297 286 289 302 299 283 286 290 290 291 291 292 292 291 293 294 291 287 291 292 299 299 298 295 297 292 285 286 291 296 294 295 295 295 294 288
297 298 298 299 299 299 299 300 301 302 302 297 286 284 289 292 293 288 287 288 287 293 292 293 292 294 292 291 293 289 290 296 298 299 298 298 293 288 283 287 292 290 292 294 293 288 289
296 297 298 298 298 298 299 300 300 302 301 297 286 286 290 282 285 290 291 290 288 287 292 293 291 291 290 287 288 287 290 292 295 297 295 294 288 289 291 292 291 290 290 292 291 292 287
297 297 298 297 298 298 298 299 299 300 301 288 286 287 290 290 291 289 290 288 287 289 289 288 287 290 290 287 288 286 290 290 289 293 293 294 286 289 287 291 290 288 290 291 290 292 291
297 297 297 297 298 298 298 299 300 300 299 287 288 294 293 290 289 288 289 289 289 291 291 292 291 289 288 290 293 294 294 294 293 291 291 290 289 286 283 288 287 283 288 289 290 292 291
296 297 297 297 298 298 298 299 300 300 300 295 294 295 291 286 290 289 290 291 290 290 288 291 293 290 293 298 297 295 294 293 293 293 294 289 288 287 283 285 276 289 294 293 291 293 295
295 296 297 297 297 297 298 298 300 300 300 296 301 296 291 287 289 289 290 290 292 292 291 292 294 297 298 295 288 284 285 286 288 291 292 293 289 284 280 280 284 287 291 292 291 290 295
296 296 296 296 295 296 296 298 300 299 301 298 299 303 297 290 289 292 291 292 289 290 290 291 297 300 297 290 285 279 278 282 282 286 292 291 292 285 283 278 276 288 293 296 296 285 296
296 296 295 294 294 297 297 299 299 299 298 297 297 303 296 288 293 294 290 290 294 291 290 292 293 294 297 288 282 281 281 286 281 281 283 285 285 282 282 279 283 291 293 296 283 287 296
295 294 294 294 293 295 298 299 300 298 298 297 297 302 297 292 293 295 296 293 294 294 288 293 290 292 290 284 284 284 283 285 284 287 284 283 282 282 283 280 278 294 293 287 295 296 296
294 294 293 293 292 297 300 298 298 300 300 300 295 300 302 294 294 298 299 300 299 297 294 295 291 292 293 288 288 287 285 287 285 281 289 283 288 285 286 286 293 296 295 298 296 295 296

GFSGBSN_sfc_thetae_132.txt.gz
Theta_e
319 320 320 319 320 324 327 327 325 324 323 322 321 320 319 318 317 316 315 314 314 314 313 314 315 317 311 304 306 317 322 320 318 318 314 312 309 309 305 307 308 305 305 306 307 307 307
318 318 318 318 319 319 320 326 325 323 321 320 318 318 317 317 316 316 315 314 313 314 313 314 315 315 309 299 314 316 314 313 313 314 312 312 309 311 307 306 304 306 307 306 308 307 307
318 318 317 317 318 318 317 317 323 321 318 317 316 315 314 313 313 315 314 313 313 314 313 313 314 313 304 302 314 314 314 311 312 312 310 314 313 309 307 303 308 306 302 304 304 305 303
316 316 317 317 317 317 316 315 315 315 315 314 314 313 312 312 313 313 312 313 313 314 314 314 315 312 300 312 314 312 312 311 313 314 312 314 313 309 307 308 306 302 301 296 303 304 304
314 313 316 317 317 317 316 315 315 315 314 314 313 313 312 313 312 312 312 313 314 314 314 314 312 310 301 312 307 310 311 307 310 311 311 312 311 306 305 300 298 299 294 296 299 304 303
312 313 313 313 317 317 316 315 315 315 314 314 313 313 313 312 311 311 312 312 315 313 313 313 311 300 304 302 307 308 311 309 307 307 306 306 305 300 300 298 290 294 295 297 297 301 301
311 312 312 311 312 312 317 316 315 314 314 314 313 313 313 312 311 311 309 307 303 303 305 302 301 301 302 307 310 308 311 307 306 304 297 303 297 294 297 300 301 299 298 296 299 302 300
309 310 310 311 311 311 312 316 315 314 313 313 313 313 313 311 311 310 308 303 303 306 299 306 304 304 306 308 302 305 312 302 300 296 299 298 294 300 302 302 300 298 296 296 299 301 300
306 306 307 309 310 311 311 312 314 314 313 313 313 313 312 311 311 308 303 305 310 310 295 299 302 302 303 304 300 302 308 303 300 297 297 294 298 302 300 299 297 298 296 296 295 299 300
303 304 305 305 307 308 309 311 312 314 313 312 312 312 311 310 303 304 301 307 311 310 289 294 297 300 302 303 297 304 309 305 302 297 298 297 301 300 298 297 298 294 300 298 296 295 289
302 302 302 303 304 305 306 307 309 313 313 313 312 311 310 308 306 300 305 309 310 307 279 299 300 307 304 298 300 299 305 305 298 298 298 295 297 297 296 296 299 296 300 297 297 294 293
301 302 302 302 303 303 304 305 306 308 311 312 311 311 309 307 305 308 310 311 306 286 278 294 299 296 296 298 297 300 299 306 304 299 299 297 302 300 298 300 300 300 297 296 296 293 286
300 300 301 302 303 303 303 304 304 305 308 310 311 311 308 307 299 312 312 303 285 281 295 292 294 297 296 295 294 296 295 294 292 289 290 294 296 300 301 297 300 298 293 286 284 284 284
299 300 300 300 301 303 303 303 303 304 305 305 309 309 308 306 308 310 304 290 278 288 289 297 297 297 293 296 295 294 294 290 296 294 291 288 287 295 300 297 295 295 293 287 280 282 286
299 299 299 299 300 301 302 303 303 303 304 303 305 306 304 305 308 308 296 282 282 288 293 291 294 292 293 295 295 293 293 292 294 295 289 289 288 298 299 299 299 294 290 296 289 290 286
299 299 299 299 300 300 301 302 303 303 303 303 300 296 301 306 308 302 289 284 287 292 294 293 287 292 290 292 292 292 293 297 295 297 298 293 288 296 298 299 299 296 298 289 291 281 279
298 298 299 299 300 300 300 301 301 303 302 302 298 287 298 307 306 293 283 285 289 294 295 290 288 289 291 291 293 292 293 296 299 297 298 295 293 292 297 293 292 292 291 293 293 289 282
298 298 298 299 299 299 300 300 301 301 303 300 292 283 301 305 288 287 285 289 293 292 295 292 293 292 290 292 291 292 292 296 301 300 293 297 294 288 292 297 298 296 293 293 287 285 289
298 298 298 298 299 300 300 300 300 301 301 299 288 289 300 299 283 284 289 289 292 291 291 290 290 292 294 291 288 293 294 298 299 298 296 297 292 286 287 293 296 292 293 294 294 292 286
298 298 298 298 299 299 299 299 300 300 301 299 287 284 288 292 291 288 287 287 287 294 293 293 292 294 291 289 293 289 291 295 298 296 299 300 293 289 284 287 292 290 292 294 293 286 287
298 297 297 298 298 299 299 299 300 300 301 297 287 285 290 283 284 287 290 288 287 287 293 294 290 291 290 286 287 289 291 291 295 296 296 295 288 290 290 290 290 290 291 292 290 291 286
298 298 297 298 298 298 298 299 299 300 300 293 285 287 290 287 287 287 288 288 287 289 290 288 288 291 292 288 288 286 289 289 289 293 292 294 286 288 285 289 290 288 290 291 290 290 290
297 297 297 297 298 298 298 299 300 300 300 289 291 293 289 288 286 285 286 287 288 291 293 293 292 291 289 291 293 293 293 293 293 291 290 290 287 285 281 287 287 282 287 289 291 292 291
296 296 296 297 297 298 298 299 300 300 300 294 293 293 286 282 286 286 289 290 290 292 290 293 295 292 294 299 298 296 294 293 293 293 293 288 287 287 282 284 275 287 294 293 291 292 293
296 296 296 296 297 298 298 298 299 300 300 296 295 292 287 284 289 289 290 290 292 293 292 292 293 297 300 296 288 284 284 285 286 290 290 292 288 282 280 280 284 287 290 290 290 289 295
296 295 296 297 297 296 295 296 297 298 299 298 296 296 291 286 286 292 290 291 287 287 289 293 296 300 298 290 286 279 277 281 281 285 291 291 291 284 282 277 275 287 292 295 294 283 294
296 296 297 297 296 295 296 296 297 299 299 298 296 297 292 288 292 292 288 288 293 291 288 292 292 293 297 288 282 280 279 285 280 280 283 284 285 281 281 279 282 290 292 294 281 284 296
296 296 296 296 295 295 295 295 297 298 299 298 295 300 293 291 294 297 297 292 293 292 288 292 291 292 290 285 284 283 282 284 283 286 284 283 281 281 282 279 276 293 293 286 293 299 297
295 295 295 295 295 294 295 298 298 299 299 299 293 300 302 296 294 301 301 301 299 299 295 296 292 292 292 288 288 288 285 287 284 280 289 282 286 284 284 285 294 295 294 296 300 297 297

GFSGBSN_sfc_thetae_135.txt.gz
Theta_e
318 319 318 319 319 318 319 321 325 323 323 323 323 323 322 321 319 318 317 315 315 315 315 314 315 317 311 302 303 315 323 321 316 315 311 308 305 303 300 302 301 299 301 303 302 303 302
318 318 318 317 317 317 318 318 320 323 322 322 322 320 319 319 318 317 316 315 314 314 315 314 315 316 307 295 311 316 313 311 313 307 307 308 305 305 302 301 298 300 301 302 301 301 302
319 318 317 317 316 316 317 317 316 319 319 316 316 315 314 314 314 315 315 314 313 314 315 314 315 311 303 297 308 308 310 307 307 307 305 309 308 303 303 299 305 303 296 299 300 300 299
317 317 317 317 316 317 317 316 316 315 315 315 314 313 313 312 313 314 313 313 313 314 315 315 315 308 299 310 307 308 307 307 310 308 309 309 309 304 301 302 300 297 296 290 297 299 299
314 314 316 317 317 317 316 316 316 315 315 314 314 313 312 312 312 311 312 312 313 314 315 315 307 305 300 313 305 308 306 305 307 308 308 310 307 301 300 293 290 293 286 290 293 299 298
314 314 314 313 316 317 317 316 316 315 315 314 314 313 312 312 312 311 310 312 313 312 313 312 309 297 301 300 306 307 306 306 304 305 303 302 300 294 293 291 284 288 290 288 289 293 296
313 313 312 312 312 312 313 317 316 315 315 314 313 313 313 312 311 310 308 306 302 301 303 300 301 298 302 306 309 306 307 303 302 300 294 299 292 288 293 295 295 295 292 290 293 297 295
311 311 311 312 311 312 312 313 315 315 314 314 313 313 313 312 311 310 307 302 302 304 295 303 301 302 305 305 300 304 307 299 297 292 296 293 290 296 298 297 295 295 293 292 295 298 294
307 307 308 309 310 311 311 311 311 314 314 313 313 313 312 311 311 307 302 303 307 307 293 297 301 302 303 305 298 299 303 301 295 292 293 290 293 299 297 295 294 294 293 293 293 295 292
305 305 306 306 306 307 308 310 310 313 313 313 312 312 311 309 302 302 299 304 306 308 286 291 297 299 302 304 296 303 304 302 297 292 294 293 297 295 296 294 295 290 297 297 295 291 285
304 303 303 303 303 304 304 306 308 310 314 313 312 312 309 308 303 299 302 305 307 302 277 296 298 305 302 297 298 297 304 302 295 296 296 292 294 293 292 295 297 293 299 296 294 289 288
303 303 302 302 302 303 303 304 305 307 310 312 312 312 309 305 303 304 307 305 303 285 277 292 297 295 295 295 296 298 297 301 303 298 297 295 300 296 295 298 298 299 296 294 292 288 279
301 301 300 300 302 303 303 303 304 304 307 308 309 311 309 306 298 305 307 300 282 279 293 290 293 295 294 292 293 295 292 290 291 288 288 293 294 298 298 293 296 295 290 279 278 278 279
300 299 299 299 300 302 303 304 304 304 304 304 305 309 309 307 306 305 302 288 277 285 288 295 295 296 290 294 293 293 291 287 293 292 288 285 283 293 297 294 292 292 291 282 277 277 281
299 299 299 299 299 300 301 302 304 304 304 303 304 303 305 306 307 305 292 280 281 285 291 290 292 288 290 293 294 292 290 289 290 293 287 286 286 295 296 297 296 292 288 293 287 287 279
299 298 298 298 299 299 300 301 302 303 303 303 294 296 294 307 306 300 288 283 285 290 291 290 284 289 286 290 290 291 290 293 293 293 296 292 285 293 295 297 297 294 296 286 286 279 277
298 298 298 298 299 299 299 299 300 301 302 302 292 286 293 306 304 292 282 284 288 292 292 290 287 286 287 287 290 290 290 293 296 295 295 293 289 288 294 291 290 290 289 291 290 286 278
298 298 297 297 298 298 298 299 300 300 302 299 291 274 295 304 288 285 284 288 292 290 292 292 291 290 288 289 288 288 291 293 300 297 291 293 290 284 288 295 296 293 291 291 284 282 282
299 298 298 297 297 298 299 298 299 300 301 293 286 283 294 295 278 283 287 287 290 290 289 290 289 292 292 288 285 289 293 298 298 296 290 292 287 282 285 291 293 291 292 292 292 288 283
299 298 298 297 297 298 298 298 298 300 300 293 287 278 286 291 286 285 284 285 285 291 289 291 290 292 290 287 290 288 290 294 296 295 297 295 291 286 281 284 290 288 290 292 291 284 283
300 299 298 297 297 297 298 298 298 299 301 292 286 279 282 273 282 284 286 286 285 285 290 291 289 289 288 285 286 287 289 289 293 294 293 291 285 286 289 289 290 289 290 291 290 290 285
299 299 298 297 297 298 298 298 299 299 300 289 282 282 287 282 284 283 285 284 284 287 288 287 287 290 290 286 288 286 288 287 287 292 290 291 284 284 283 287 287 285 289 290 290 291 290
298 298 297 297 297 297 298 298 299 299 298 284 286 288 286 282 283 282 281 284 288 289 290 292 291 289 288 289 292 292 293 293 291 289 287 288 284 282 279 285 284 280 285 287 289 291 291
298 297 297 297 297 297 298 298 299 299 298 290 290 288 283 277 279 279 283 286 284 287 287 291 293 290 293 297 296 294 292 292 291 290 292 286 285 284 280 282 273 285 291 290 289 290 292
298 297 297 297 296 296 297 299 298 299 299 292 294 289 283 278 281 282 283 284 286 289 289 290 293 295 297 294 286 279 279 281 284 288 287 289 285 279 275 276 282 284 289 287 286 287 292
297 297 297 296 297 297 298 297 297 297 298 295 294 294 288 280 278 285 282 284 284 285 288 288 297 297 296 286 283 277 274 278 279 284 289 287 287 280 276 274 273 282 290 294 292 280 291
298 297 296 296 298 297 296 296 296 296 296 294 292 296 289 282 285 286 282 284 289 289 286 290 292 290 292 282 276 275 277 284 277 278 280 280 280 279 278 277 281 288 291 293 280 279 292
296 296 296 297 297 297 297 296 296 296 296 294 292 296 290 284 286 289 290 286 292 291 285 290 288 288 284 279 280 278 278 281 280 281 283 281 280 279 280 277 275 292 292 285 288 292 291
296 296 296 296 297 296 296 296 296 297 298 297 290 295 297 289 286 293 294 295 298 296 292 292 290 290 288 284 281 280 278 278 280 275 286 276 282 279 283 280 288 292 290 292 294 292 292